Location: Bletchingley
(51.2333°N, 0.1000°W)
Time: 04:01:21
(UTC+00:00)

Terra - Pass Details

Date: 18 September 2020
Orbit: 701 x 703 km, 98.2° (Epoch: 22 October)

Event Time Altitude Azimuth Distance (km) Brightness Sun altitude
Exits shadow 21:58:04 40° 337° (NNW) 1,042 3.0 -31.9°
Drops below altitude 10° 22:01:07 10° 344° (NNW) 2,183 5.1 -32.1°
Sets 22:03:23 0° 345° (NNW) 3,106 6.1 -32.3°
